Location: Les Jeannots
(43.2262°N, 5.5774°E)
Time: 01:56:23
(UTC+00:00)

GEOS 3 Rocket - Pass Details

Date: 05 July 2020
Orbit: 771 x 848 km, 115.0° (Epoch: 04 August)

Event Time Altitude Azimuth Distance (km) Brightness Sun altitude
Rises 20:57:00 0° 35° (NE) 3,411 7.1 -13.9°
Reaches altitude 10° 20:59:20 10° 34° (NNE) 2,476 6.4 -14.2°
Maximum altitude 21:04:43 75° 310° (NW) 880 3.9 -14.8°
Drops below altitude 10° 21:10:05 10° 226° (SW) 2,460 6.0 -15.4°
Sets 21:12:23 0° 224° (SW) 3,387 6.7 -15.6°
